StationID,Date,MaxTemp,MinTemp,Precipitation,Snowfall,SnowDepth
"CA00101QFEG","1961-11-01",51.08,42.98,0.00,0.00,
"CA00101QFEG","1961-11-02",46.94,30.92,43.00,0.00,
"CA00101QFEG","1961-11-03",50.00,42.98,0.00,0.00,
"CA00101QFEG","1961-11-04",46.94,30.92,0.00,0.00,
"CA00101QFEG","1961-11-05",48.02,37.94,0.00,0.00,
"CA00101QFEG","1961-11-06",51.08,41.00,0.00,0.00,
"CA00101QFEG","1961-11-07",55.04,42.08,0.00,0.00,
"CA00101QFEG","1961-11-08",53.06,42.08,61.00,0.00,
"CA00101QFEG","1961-11-09",50.00,35.96,257.00,0.00,
"CA00101QFEG","1961-11-10",51.98,46.94,140.00,0.00,
"CA00101QFEG","1961-11-11",51.08,42.98,8.00,0.00,
"CA00101QFEG","1961-11-12",48.02,33.98,0.00,0.00,
"CA00101QFEG","1961-11-13",46.94,42.08,13.00,0.00,
"CA00101QFEG","1961-11-14",51.98,37.04,0.00,0.00,
"CA00101QFEG","1961-11-15",46.94,33.98,0.00,0.00,
"CA00101QFEG","1961-11-16",48.02,30.02,0.00,0.00,
"CA00101QFEG","1961-11-17",44.06,28.94,10.00,0.00,
"CA00101QFEG","1961-11-18",46.94,39.92,13.00,0.00,
"CA00101QFEG","1961-11-19",42.98,28.94,0.00,0.00,
"CA00101QFEG","1961-11-20",41.00,24.98,0.00,0.00,
"CA00101QFEG","1961-11-21",48.02,37.04,221.00,0.00,
"CA00101QFEG","1961-11-22",44.96,41.00,0.00,0.00,
"CA00101QFEG","1961-11-23",42.98,30.92,5.00,0.00,
"CA00101QFEG","1961-11-24",41.00,24.98,0.00,0.00,
"CA00101QFEG","1961-11-25",39.92,28.94,0.00,0.00,
"CA00101QFEG","1961-11-26",44.96,33.08,8.00,0.00,
"CA00101QFEG","1961-11-27",48.02,42.98,23.00,0.00,
"CA00101QFEG","1961-11-28",48.92,44.06,58.00,0.00,
"CA00101QFEG","1961-11-29",50.00,44.96,3.00,0.00,
"CA00101QFEG","1961-11-30",51.08,41.00,81.00,0.00,
"CA00101QFEG","1961-12-01",51.08,37.94,8.00,0.00,
"CA00101QFEG","1961-12-02",44.96,42.98,41.00,0.00,
"CA00101QFEG","1961-12-03",46.04,35.96,91.00,0.00,
"CA00101QFEG","1961-12-04",48.92,42.08,56.00,0.00,
"CA00101QFEG","1961-12-05",48.02,39.92,0.00,0.00,
"CA00101QFEG","1961-12-06",42.08,26.96,51.00,0.00,
"CA00101QFEG","1961-12-07",41.00,35.96,0.00,0.00,
"CA00101QFEG","1961-12-08",42.98,30.02,0.00,0.00,
"CA00101QFEG","1961-12-09",39.02,30.02,0.00,0.00,
"CA00101QFEG","1961-12-10",32.00,28.04,0.00,0.00,
"CA00101QFEG","1961-12-11",33.98,28.04,0.00,0.00,
"CA00101QFEG","1961-12-12",35.06,32.00,36.00,20.00,
"CA00101QFEG","1961-12-13",37.94,33.08,51.00,0.00,
"CA00101QFEG","1961-12-14",39.02,35.96,25.00,0.00,
"CA00101QFEG","1961-12-15",42.08,37.04,15.00,0.00,
"CA00101QFEG","1961-12-16",42.08,35.96,97.00,0.00,
"CA00101QFEG","1961-12-17",44.96,35.06,5.00,0.00,
"CA00101QFEG","1961-12-18",41.00,35.06,56.00,0.00,
"CA00101QFEG","1961-12-19",50.00,39.02,104.00,0.00,
"CA00101QFEG","1961-12-20",46.94,39.02,97.00,0.00,
"CA00101QFEG","1961-12-21",42.98,37.94,89.00,0.00,
"CA00101QFEG","1961-12-22",46.94,41.00,58.00,0.00,
"CA00101QFEG","1961-12-23",53.06,46.04,15.00,0.00,
"CA00101QFEG","1961-12-24",42.08,37.04,58.00,0.00,
"CA00101QFEG","1961-12-25",39.02,33.98,66.00,0.00,
"CA00101QFEG","1961-12-26",41.00,28.94,0.00,0.00,
"CA00101QFEG","1961-12-27",46.04,33.08,79.00,0.00,
"CA00101QFEG","1961-12-28",53.06,37.04,58.00,0.00,
"CA00101QFEG","1961-12-29",51.98,44.96,5.00,0.00,
"CA00101QFEG","1961-12-30",46.94,44.96,0.00,0.00,
"CA00101QFEG","1961-12-31",46.04,39.92,0.00,0.00,
"CA00101QFEG","1962-01-01",44.06,37.94,18.00,0.00,
"CA00101QFEG","1962-01-02",48.02,41.00,191.00,0.00,
"CA00101QFEG","1962-01-03",51.08,44.96,0.00,0.00,
"CA00101QFEG","1962-01-04",44.06,39.02,0.00,0.00,
"CA00101QFEG","1962-01-05",50.00,41.00,112.00,0.00,
"CA00101QFEG","1962-01-06",48.92,39.92,114.00,0.00,
"CA00101QFEG","1962-01-07",51.98,41.00,0.00,0.00,
"CA00101QFEG","1962-01-08",50.00,44.06,0.00,0.00,
"CA00101QFEG","1962-01-09",48.02,42.08,0.00,0.00,
"CA00101QFEG","1962-01-10",44.96,39.92,0.00,0.00,
"CA00101QFEG","1962-01-11",41.00,30.02,23.00,0.00,
"CA00101QFEG","1962-01-12",39.02,35.96,13.00,0.00,
"CA00101QFEG","1962-01-13",41.00,30.02,5.00,0.00,
"CA00101QFEG","1962-01-14",46.04,32.00,20.00,0.00,
"CA00101QFEG","1962-01-15",37.94,28.04,0.00,0.00,
"CA00101QFEG","1962-01-16",42.08,35.06,18.00,0.00,
"CA00101QFEG","1962-01-17",35.96,30.02,0.00,0.00,
"CA00101QFEG","1962-01-18",30.02,26.96,0.00,0.00,
"CA00101QFEG","1962-01-19",26.06,21.02,0.00,0.00,
"CA00101QFEG","1962-01-20",32.00,23.00,0.00,0.00,
"CA00101QFEG","1962-01-21",39.92,15.98,0.00,0.00,
"CA00101QFEG","1962-01-22",37.94,19.94,0.00,0.00,
"CA00101QFEG","1962-01-23",39.92,28.04,15.00,0.00,
"CA00101QFEG","1962-01-24",46.94,35.96,99.00,0.00,
"CA00101QFEG","1962-01-25",46.94,42.98,46.00,0.00,
"CA00101QFEG","1962-01-26",48.92,42.98,145.00,0.00,
"CA00101QFEG","1962-01-27",50.00,44.96,0.00,0.00,
"CA00101QFEG","1962-01-28",50.00,39.02,0.00,0.00,
"CA00101QFEG","1962-01-29",53.06,37.04,0.00,0.00,
"CA00101QFEG","1962-01-30",55.04,42.08,0.00,0.00,
"CA00101QFEG","1962-01-31",53.06,37.94,0.00,0.00,
"CA00101QFEG","1962-02-01",53.06,42.98,20.00,0.00,
"CA00101QFEG","1962-02-02",53.06,46.94,69.00,0.00,
"CA00101QFEG","1962-02-03",53.96,48.02,0.00,0.00,
"CA00101QFEG","1962-02-04",48.02,35.96,0.00,0.00,
"CA00101QFEG","1962-02-05",46.04,39.02,0.00,0.00,
"CA00101QFEG","1962-02-06",48.02,39.92,3.00,0.00,
"CA00101QFEG","1962-02-07",53.06,39.02,0.00,0.00,
"CA00101QFEG","1962-02-08",51.98,44.96,5.00,0.00,
"CA00101QFEG","1962-02-09",50.00,42.08,20.00,0.00,
"CA00101QFEG","1962-02-10",48.02,44.06,0.00,0.00,
"CA00101QFEG","1962-02-11",48.92,39.02,0.00,0.00,
"CA00101QFEG","1962-02-12",51.98,44.06,0.00,0.00,
"CA00101QFEG","1962-02-13",53.06,39.02,81.00,0.00,
"CA00101QFEG","1962-02-14",48.02,44.06,13.00,0.00,
"CA00101QFEG","1962-02-15",48.02,42.08,8.00,0.00,
"CA00101QFEG","1962-02-16",51.08,39.92,0.00,0.00,
"CA00101QFEG","1962-02-17",46.94,33.98,0.00,0.00,
"CA00101QFEG","1962-02-18",51.08,41.00,0.00,0.00,
"CA00101QFEG","1962-02-19",51.08,37.94,0.00,0.00,
"CA00101QFEG","1962-02-20",44.96,35.96,0.00,0.00,
"CA00101QFEG","1962-02-21",50.00,26.96,5.00,0.00,
"CA00101QFEG","1962-02-22",51.08,35.96,13.00,0.00,
"CA00101QFEG","1962-02-23",37.94,33.98,0.00,0.00,
"CA00101QFEG","1962-02-24",37.94,28.94,0.00,0.00,
"CA00101QFEG","1962-02-25",37.94,24.08,0.00,0.00,
"CA00101QFEG","1962-02-26",37.94,19.04,0.00,0.00,
"CA00101QFEG","1962-02-27",37.04,19.04,102.00,102.00,
"CA00101QFEG","1962-02-28",30.92,28.94,56.00,56.00,
"CA00101QFEG","1962-03-01",35.96,30.02,69.00,69.00,
"CA00101QFEG","1962-03-02",37.04,26.96,38.00,38.00,
"CA00101QFEG","1962-03-03",37.04,26.06,86.00,76.00,
"CA00101QFEG","1962-03-04",37.94,30.92,53.00,13.00,
"CA00101QFEG","1962-03-05",42.08,35.06,3.00,0.00,
"CA00101QFEG","1962-03-06",53.06,37.04,0.00,0.00,
"CA00101QFEG","1962-03-07",48.92,30.02,5.00,0.00,
"CA00101QFEG","1962-03-08",48.02,41.00,0.00,0.00,
"CA00101QFEG","1962-03-09",46.04,28.94,0.00,0.00,
"CA00101QFEG","1962-03-10",44.96,30.02,61.00,0.00,
"CA00101QFEG","1962-03-11",44.06,30.92,0.00,0.00,
"CA00101QFEG","1962-03-12",46.94,26.96,0.00,0.00,
"CA00101QFEG","1962-03-13",50.00,28.94,0.00,0.00,
"CA00101QFEG","1962-03-14",51.98,33.08,0.00,0.00,
"CA00101QFEG","1962-03-15",53.96,39.92,28.00,0.00,
"CA00101QFEG","1962-03-16",53.96,42.98,0.00,0.00,
"CA00101QFEG","1962-03-17",55.04,33.08,0.00,0.00,
"CA00101QFEG","1962-03-18",48.92,33.08,8.00,0.00,
"CA00101QFEG","1962-03-19",48.02,39.92,69.00,0.00,
"CA00101QFEG","1962-03-20",48.02,39.92,36.00,0.00,
"CA00101QFEG","1962-03-21",42.08,37.04,0.00,0.00,
"CA00101QFEG","1962-03-22",48.92,35.06,8.00,0.00,
"CA00101QFEG","1962-03-23",46.94,41.00,51.00,0.00,
"CA00101QFEG","1962-03-24",51.98,37.94,109.00,0.00,
"CA00101QFEG","1962-03-25",51.08,42.08,5.00,0.00,
"CA00101QFEG","1962-03-26",51.08,35.96,0.00,0.00,
"CA00101QFEG","1962-03-27",48.02,35.96,23.00,0.00,
"CA00101QFEG","1962-03-28",53.06,28.94,0.00,0.00,
"CA00101QFEG","1962-03-29",60.08,33.08,0.00,0.00,
"CA00101QFEG","1962-03-30",62.06,32.00,0.00,0.00,
"CA00101QFEG","1962-03-31",60.08,33.98,0.00,0.00,
"CA00101QFEG","1962-04-01",55.04,35.06,0.00,0.00,
"CA00101QFEG","1962-04-02",48.92,33.98,0.00,0.00,
"CA00101QFEG","1962-04-03",53.06,44.06,30.00,0.00,
"CA00101QFEG","1962-04-04",53.96,46.04,0.00,0.00,
"CA00101QFEG","1962-04-05",51.98,35.06,114.00,0.00,
"CA00101QFEG","1962-04-06",53.96,42.08,43.00,0.00,
"CA00101QFEG","1962-04-07",53.96,44.06,0.00,0.00,
"CA00101QFEG","1962-04-08",55.04,39.02,0.00,0.00,
"CA00101QFEG","1962-04-09",55.04,44.06,0.00,0.00,
"CA00101QFEG","1962-04-10",53.96,46.04,0.00,0.00,
"CA00101QFEG","1962-04-11",57.02,33.08,0.00,0.00,
"CA00101QFEG","1962-04-12",55.04,37.04,0.00,0.00,
"CA00101QFEG","1962-04-13",68.00,42.08,0.00,0.00,
"CA00101QFEG","1962-04-14",64.94,46.94,18.00,0.00,
"CA00101QFEG","1962-04-15",59.00,46.04,0.00,0.00,
"CA00101QFEG","1962-04-16",62.96,35.96,0.00,0.00,
"CA00101QFEG","1962-04-17",66.92,42.08,0.00,0.00,
"CA00101QFEG","1962-04-18",69.08,41.00,0.00,0.00,
"CA00101QFEG","1962-04-19",64.04,46.94,0.00,0.00,
"CA00101QFEG","1962-04-20",53.06,44.96,51.00,0.00,
"CA00101QFEG","1962-04-21",59.00,44.96,0.00,0.00,
"CA00101QFEG","1962-04-22",57.92,44.06,0.00,0.00,
"CA00101QFEG","1962-04-23",57.02,48.92,23.00,0.00,
"CA00101QFEG","1962-04-24",55.94,48.02,28.00,0.00,
"CA00101QFEG","1962-04-25",57.02,42.98,0.00,0.00,
"CA00101QFEG","1962-04-26",55.94,42.98,66.00,0.00,
"CA00101QFEG","1962-04-27",53.96,42.98,30.00,0.00,
"CA00101QFEG","1962-04-28",55.04,41.00,0.00,0.00,
"CA00101QFEG","1962-04-29",53.96,44.06,0.00,0.00,
"CA00101QFEG","1962-04-30",51.08,44.96,10.00,0.00,
"CA00101QFEG","1962-05-01",57.02,48.02,10.00,0.00,
"CA00101QFEG","1962-05-02",55.04,42.08,61.00,0.00,
"CA00101QFEG","1962-05-03",53.06,44.96,25.00,0.00,
"CA00101QFEG","1962-05-04",53.96,37.94,0.00,0.00,
"CA00101QFEG","1962-05-05",55.94,39.02,0.00,0.00,
"CA00101QFEG","1962-05-06",55.94,42.08,0.00,0.00,
"CA00101QFEG","1962-05-07",57.92,33.08,0.00,0.00,
"CA00101QFEG","1962-05-08",51.98,44.06,64.00,0.00,
"CA00101QFEG","1962-05-09",57.92,46.94,23.00,0.00,
"CA00101QFEG","1962-05-10",57.92,46.94,10.00,0.00,
"CA00101QFEG","1962-05-11",55.94,46.94,10.00,0.00,
"CA00101QFEG","1962-05-12",60.08,39.02,0.00,0.00,
"CA00101QFEG","1962-05-13",62.06,46.94,0.00,0.00,
"CA00101QFEG","1962-05-14",60.98,48.02,5.00,0.00,
"CA00101QFEG","1962-05-15",60.98,46.94,0.00,0.00,
"CA00101QFEG","1962-05-16",69.08,39.02,0.00,0.00,
"CA00101QFEG","1962-05-17",60.98,48.92,0.00,0.00,
"CA00101QFEG","1962-05-18",59.00,46.04,0.00,0.00,
"CA00101QFEG","1962-05-19",62.06,42.08,0.00,0.00,
"CA00101QFEG","1962-05-20",62.96,48.02,0.00,0.00,
"CA00101QFEG","1962-05-21",59.00,46.94,23.00,0.00,
"CA00101QFEG","1962-05-22",53.96,48.92,36.00,0.00,
"CA00101QFEG","1962-05-23",60.98,50.00,5.00,0.00,
"CA00101QFEG","1962-05-24",62.06,51.08,5.00,0.00,
"CA00101QFEG","1962-05-25",60.98,51.08,0.00,0.00,
"CA00101QFEG","1962-05-26",64.04,51.08,0.00,0.00,
"CA00101QFEG","1962-05-27",64.94,46.04,0.00,0.00,
"CA00101QFEG","1962-05-28",64.04,50.00,0.00,0.00,
"CA00101QFEG","1962-05-29",60.98,46.04,0.00,0.00,
"CA00101QFEG","1962-05-30",60.98,42.98,0.00,0.00,
"CA00101QFEG","1962-05-31",62.06,48.92,3.00,0.00,
"CA00101QFEG","1962-06-01",64.94,46.94,84.00,0.00,
"CA00101QFEG","1962-06-02",57.92,48.92,0.00,0.00,
"CA00101QFEG","1962-06-03",60.08,46.94,0.00,0.00,
"CA00101QFEG","1962-06-04",55.94,42.98,5.00,0.00,
"CA00101QFEG","1962-06-05",64.04,48.92,0.00,0.00,
"CA00101QFEG","1962-06-06",64.04,39.92,0.00,0.00,
"CA00101QFEG","1962-06-07",69.08,46.04,3.00,0.00,
"CA00101QFEG","1962-06-08",64.94,53.06,0.00,0.00,
"CA00101QFEG","1962-06-09",64.04,48.92,0.00,0.00,
"CA00101QFEG","1962-06-10",62.06,46.94,0.00,0.00,
"CA00101QFEG","1962-06-11",66.02,42.08,0.00,0.00,
"CA00101QFEG","1962-06-12",62.06,46.94,0.00,0.00,
"CA00101QFEG","1962-06-13",62.06,48.02,0.00,0.00,
"CA00101QFEG","1962-06-14",69.08,48.02,0.00,0.00,
"CA00101QFEG","1962-06-15",71.06,48.02,0.00,0.00,
"CA00101QFEG","1962-06-16",71.96,50.00,0.00,0.00,
"CA00101QFEG","1962-06-17",68.00,46.04,0.00,0.00,
"CA00101QFEG","1962-06-18",64.04,50.00,0.00,0.00,
"CA00101QFEG","1962-06-19",66.92,44.06,0.00,0.00,
"CA00101QFEG","1962-06-20",75.02,50.00,0.00,0.00,
"CA00101QFEG","1962-06-21",75.02,46.94,0.00,0.00,
"CA00101QFEG","1962-06-22",73.04,50.00,0.00,0.00,
"CA00101QFEG","1962-06-23",75.92,48.02,0.00,0.00,
"CA00101QFEG","1962-06-24",73.94,53.96,0.00,0.00,
"CA00101QFEG","1962-06-25",78.98,51.08,0.00,0.00,
"CA00101QFEG","1962-06-26",69.98,51.98,10.00,0.00,
"CA00101QFEG","1962-06-27",68.00,53.06,0.00,0.00,
"CA00101QFEG","1962-06-28",73.04,50.00,0.00,0.00,
"CA00101QFEG","1962-06-29",69.08,51.98,0.00,0.00,
"CA00101QFEG","1962-06-30",69.08,51.98,0.00,0.00,
"CA00101QFEG","1962-07-01",64.94,51.08,0.00,0.00,
"CA00101QFEG","1962-07-02",66.02,48.02,0.00,0.00,
"CA00101QFEG","1962-07-03",69.08,42.98,48.00,0.00,
"CA00101QFEG","1962-07-04",59.00,51.08,10.00,0.00,
"CA00101QFEG","1962-07-05",60.08,51.08,3.00,0.00,
"CA00101QFEG","1962-07-06",66.92,51.08,0.00,0.00,
"CA00101QFEG","1962-07-07",71.96,46.94,0.00,0.00,
"CA00101QFEG","1962-07-08",71.96,48.92,0.00,0.00,
"CA00101QFEG","1962-07-09",69.08,51.08,0.00,0.00,
"CA00101QFEG","1962-07-10",68.00,51.08,0.00,0.00,
"CA00101QFEG","1962-07-11",71.06,46.94,0.00,0.00,
"CA00101QFEG","1962-07-12",68.00,53.96,0.00,0.00,
"CA00101QFEG","1962-07-13",69.98,53.06,0.00,0.00,
"CA00101QFEG","1962-07-14",68.00,53.06,0.00,0.00,
"CA00101QFEG","1962-07-15",71.06,53.96,0.00,0.00,
"CA00101QFEG","1962-07-16",62.96,55.04,0.00,0.00,
"CA00101QFEG","1962-07-17",64.04,53.06,0.00,0.00,
"CA00101QFEG","1962-07-18",68.00,48.92,0.00,0.00,
"CA00101QFEG","1962-07-19",66.02,53.96,0.00,0.00,
"CA00101QFEG","1962-07-20",71.96,51.98,0.00,0.00,
"CA00101QFEG","1962-07-21",78.08,51.98,0.00,0.00,
"CA00101QFEG","1962-07-22",80.06,51.98,0.00,0.00,
"CA00101QFEG","1962-07-23",78.98,55.04,0.00,0.00,
"CA00101QFEG","1962-07-24",78.08,53.96,0.00,0.00,
"CA00101QFEG","1962-07-25",77.00,53.06,0.00,0.00,
"CA00101QFEG","1962-07-26",82.04,53.06,0.00,0.00,
"CA00101QFEG","1962-07-27",78.98,53.96,0.00,0.00,
"CA00101QFEG","1962-07-28",78.08,57.92,0.00,0.00,
"CA00101QFEG","1962-07-29",78.98,51.98,0.00,0.00,
"CA00101QFEG","1962-07-30",73.94,51.98,0.00,0.00,
"CA00101QFEG","1962-07-31",77.00,51.98,0.00,0.00,
"CA00101QFEG","1962-08-01",66.92,51.98,0.00,0.00,
"CA00101QFEG","1962-08-02",64.04,51.98,30.00,0.00,
"CA00101QFEG","1962-08-03",64.04,55.04,38.00,0.00,
"CA00101QFEG","1962-08-04",57.92,53.06,203.00,0.00,
"CA00101QFEG","1962-08-05",62.06,53.96,18.00,0.00,
"CA00101QFEG","1962-08-06",64.94,55.04,38.00,0.00,
"CA00101QFEG","1962-08-07",69.08,55.94,36.00,0.00,
"CA00101QFEG","1962-08-08",68.00,53.06,0.00,0.00,
"CA00101QFEG","1962-08-09",69.08,48.02,0.00,0.00,
"CA00101QFEG","1962-08-10",69.98,55.04,0.00,0.00,
"CA00101QFEG","1962-08-11",69.98,55.94,43.00,0.00,
"CA00101QFEG","1962-08-12",71.96,55.04,0.00,0.00,
"CA00101QFEG","1962-08-13",71.06,51.98,0.00,0.00,
"CA00101QFEG","1962-08-14",75.92,48.92,0.00,0.00,
"CA00101QFEG","1962-08-15",75.02,51.08,51.00,0.00,
"CA00101QFEG","1962-08-16",71.96,57.92,5.00,0.00,
"CA00101QFEG","1962-08-17",69.08,55.04,130.00,0.00,
"CA00101QFEG","1962-08-18",62.96,55.04,8.00,0.00,
"CA00101QFEG","1962-08-19",69.98,55.94,0.00,0.00,
"CA00101QFEG","1962-08-20",73.94,57.92,8.00,0.00,
"CA00101QFEG","1962-08-21",69.08,57.02,0.00,0.00,
"CA00101QFEG","1962-08-22",69.98,46.94,0.00,0.00,
"CA00101QFEG","1962-08-23",71.96,46.94,0.00,0.00,
"CA00101QFEG","1962-08-24",75.92,50.00,0.00,0.00,
"CA00101QFEG","1962-08-25",66.92,48.02,0.00,0.00,
"CA00101QFEG","1962-08-26",69.08,53.96,0.00,0.00,
"CA00101QFEG","1962-08-27",66.92,44.96,0.00,0.00,
"CA00101QFEG","1962-08-28",69.98,55.94,0.00,0.00,
"CA00101QFEG","1962-08-29",77.00,46.94,0.00,0.00,
"CA00101QFEG","1962-08-30",75.02,46.94,0.00,0.00,
"CA00101QFEG","1962-08-31",69.08,46.94,0.00,0.00,
"CA00101QFEG","1962-09-01",68.00,46.94,0.00,0.00,
"CA00101QFEG","1962-09-02",78.98,44.96,0.00,0.00,
"CA00101QFEG","1962-09-03",78.98,46.04,0.00,0.00,
"CA00101QFEG","1962-09-04",82.04,46.94,0.00,0.00,
"CA00101QFEG","1962-09-05",78.08,46.94,0.00,0.00,
"CA00101QFEG","1962-09-06",71.96,46.94,0.00,0.00,
"CA00101QFEG","1962-09-07",73.94,46.04,0.00,0.00,
"CA00101QFEG","1962-09-08",73.04,42.98,0.00,0.00,
"CA00101QFEG","1962-09-09",68.00,42.08,56.00,0.00,
"CA00101QFEG","1962-09-10",60.08,55.04,51.00,0.00,
"CA00101QFEG","1962-09-11",64.94,53.06,0.00,0.00,
"CA00101QFEG","1962-09-12",62.96,39.02,81.00,0.00,
"CA00101QFEG","1962-09-13",55.04,51.08,15.00,0.00,
"CA00101QFEG","1962-09-14",64.94,53.06,0.00,0.00,
"CA00101QFEG","1962-09-15",64.04,39.92,0.00,0.00,
"CA00101QFEG","1962-09-16",69.08,42.08,0.00,0.00,
"CA00101QFEG","1962-09-17",73.04,46.94,0.00,0.00,
"CA00101QFEG","1962-09-18",78.08,50.00,0.00,0.00,
"CA00101QFEG","1962-09-19",68.00,51.98,0.00,0.00,
"CA00101QFEG","1962-09-20",68.00,46.94,0.00,0.00,
"CA00101QFEG","1962-09-21",64.94,48.92,0.00,0.00,
"CA00101QFEG","1962-09-22",64.04,51.08,0.00,0.00,
"CA00101QFEG","1962-09-23",66.92,44.96,0.00,0.00,
"CA00101QFEG","1962-09-24",73.04,44.96,0.00,0.00,
"CA00101QFEG","1962-09-25",71.06,46.94,0.00,0.00,
"CA00101QFEG","1962-09-26",59.00,51.08,5.00,0.00,
"CA00101QFEG","1962-09-27",66.02,51.98,41.00,0.00,
"CA00101QFEG","1962-09-28",60.98,51.98,147.00,0.00,
"CA00101QFEG","1962-09-29",60.98,50.00,0.00,0.00,
"CA00101QFEG","1962-09-30",64.94,51.08,0.00,0.00,
"CA00101QFEG","1962-10-01",64.94,44.96,0.00,0.00,
"CA00101QFEG","1962-10-02",64.94,46.94,38.00,0.00,
"CA00101QFEG","1962-10-03",59.00,50.00,13.00,0.00,
"CA00101QFEG","1962-10-04",59.00,37.94,0.00,0.00,
"CA00101QFEG","1962-10-05",53.96,41.00,61.00,0.00,
"CA00101QFEG","1962-10-06",57.92,44.06,18.00,0.00,
"CA00101QFEG","1962-10-07",55.94,44.96,71.00,0.00,
"CA00101QFEG","1962-10-08",55.04,48.02,91.00,0.00,
"CA00101QFEG","1962-10-09",55.94,46.94,3.00,0.00,
"CA00101QFEG","1962-10-10",55.04,41.00,0.00,0.00,
"CA00101QFEG","1962-10-11",53.96,48.92,51.00,0.00,
"CA00101QFEG","1962-10-12",55.04,48.92,218.00,0.00,
"CA00101QFEG","1962-10-13",59.00,46.94,0.00,0.00,
"CA00101QFEG","1962-10-14",60.08,39.92,0.00,0.00,
"CA00101QFEG","1962-10-15",57.92,39.92,0.00,0.00,
"CA00101QFEG","1962-10-16",55.04,39.92,0.00,0.00,
"CA00101QFEG","1962-10-17",53.06,46.04,5.00,0.00,
"CA00101QFEG","1962-10-18",51.98,46.94,8.00,0.00,
"CA00101QFEG","1962-10-19",57.92,46.94,3.00,0.00,
"CA00101QFEG","1962-10-20",60.08,51.98,0.00,0.00,
"CA00101QFEG","1962-10-21",64.94,51.98,0.00,0.00,
"CA00101QFEG","1962-10-22",60.08,48.92,0.00,0.00,
"CA00101QFEG","1962-10-23",60.08,41.00,0.00,0.00,
"CA00101QFEG","1962-10-24",64.04,41.00,0.00,0.00,
"CA00101QFEG","1962-10-25",55.04,41.00,36.00,0.00,
"CA00101QFEG","1962-10-26",57.02,48.02,0.00,0.00,
"CA00101QFEG","1962-10-27",57.92,51.08,0.00,0.00,
"CA00101QFEG","1962-10-28",64.04,48.92,0.00,0.00,
"CA00101QFEG","1962-10-29",64.04,48.92,0.00,0.00,
"CA00101QFEG","1962-10-30",62.96,42.98,0.00,0.00,
"CA00101QFEG","1962-10-31",60.08,44.96,0.00,0.00,
"CA00101QFEG","1962-11-01",53.96,48.02,0.00,0.00,
"CA00101QFEG","1962-11-02",50.00,44.96,0.00,0.00,
"CA00101QFEG","1962-11-03",55.94,46.94,79.00,0.00,
"CA00101QFEG","1962-11-04",55.04,48.92,25.00,0.00,
"CA00101QFEG","1962-11-05",51.08,46.94,33.00,0.00,
"CA00101QFEG","1962-11-06",53.06,42.08,0.00,0.00,
"CA00101QFEG","1962-11-07",53.06,44.06,71.00,0.00,
"CA00101QFEG","1962-11-08",53.96,39.92,10.00,0.00,
"CA00101QFEG","1962-11-09",55.04,44.06,30.00,0.00,
"CA00101QFEG","1962-11-10",51.98,42.08,81.00,0.00,
"CA00101QFEG","1962-11-11",51.98,46.04,53.00,0.00,
"CA00101QFEG","1962-11-12",53.06,42.98,46.00,0.00,
"CA00101QFEG","1962-11-13",51.08,42.98,10.00,0.00,
"CA00101QFEG","1962-11-14",53.06,44.06,5.00,0.00,
"CA00101QFEG","1962-11-15",53.06,42.08,0.00,0.00,
"CA00101QFEG","1962-11-16",48.92,35.96,69.00,0.00,
"CA00101QFEG","1962-11-17",51.08,41.00,0.00,0.00,
"CA00101QFEG","1962-11-18",50.00,42.98,414.00,0.00,
"CA00101QFEG","1962-11-19",60.08,46.04,500.00,0.00,
"CA00101QFEG","1962-11-20",55.04,46.94,13.00,0.00,
"CA00101QFEG","1962-11-21",48.92,44.06,5.00,0.00,
"CA00101QFEG","1962-11-22",51.08,35.96,3.00,0.00,
"CA00101QFEG","1962-11-23",51.08,37.94,10.00,0.00,
"CA00101QFEG","1962-11-24",51.08,39.92,361.00,0.00,
"CA00101QFEG","1962-11-25",53.96,44.06,234.00,0.00,
"CA00101QFEG","1962-11-26",50.00,42.98,71.00,0.00,
"CA00101QFEG","1962-11-27",46.94,37.94,48.00,0.00,
"CA00101QFEG","1962-11-28",46.94,28.94,3.00,0.00,
"CA00101QFEG","1962-11-29",44.06,39.02,178.00,0.00,
"CA00101QFEG","1962-11-30",46.04,37.94,28.00,0.00,
"CA00101QFEG","1962-12-01",46.04,32.00,104.00,0.00,
"CA00101QFEG","1962-12-02",42.98,37.94,97.00,0.00,
"CA00101QFEG","1962-12-03",46.04,32.00,46.00,0.00,
"CA00101QFEG","1962-12-04",48.02,37.94,64.00,0.00,
"CA00101QFEG","1962-12-05",53.06,44.06,86.00,0.00,
"CA00101QFEG","1962-12-06",51.08,46.94,3.00,0.00,
"CA00101QFEG","1962-12-07",53.06,42.98,3.00,0.00,
"CA00101QFEG","1962-12-08",50.00,48.02,0.00,0.00,
"CA00101QFEG","1962-12-09",46.04,44.96,0.00,0.00,
"CA00101QFEG","1962-12-10",44.96,41.00,0.00,0.00,
"CA00101QFEG","1962-12-11",44.06,39.02,0.00,0.00,
"CA00101QFEG","1962-12-12",46.94,37.04,0.00,0.00,
"CA00101QFEG","1962-12-13",48.92,44.06,99.00,0.00,
"CA00101QFEG","1962-12-14",57.02,46.94,46.00,0.00,
"CA00101QFEG","1962-12-15",55.94,48.92,28.00,0.00,
"CA00101QFEG","1962-12-16",48.92,42.98,3.00,0.00,
"CA00101QFEG","1962-12-17",46.04,39.92,0.00,0.00,
"CA00101QFEG","1962-12-18",46.04,41.00,36.00,0.00,
"CA00101QFEG","1962-12-19",46.94,42.08,0.00,0.00,
"CA00101QFEG","1962-12-20",48.92,39.02,33.00,0.00,
"CA00101QFEG","1962-12-21",50.00,39.92,0.00,0.00,
"CA00101QFEG","1962-12-22",42.98,32.00,0.00,0.00,
"CA00101QFEG","1962-12-23",42.98,28.94,0.00,0.00,
"CA00101QFEG","1962-12-24",39.92,24.98,0.00,0.00,
"CA00101QFEG","1962-12-25",41.00,26.96,0.00,0.00,
"CA00101QFEG","1962-12-26",42.08,30.92,3.00,0.00,
"CA00101QFEG","1962-12-27",48.02,39.02,25.00,0.00,
"CA00101QFEG","1962-12-28",46.04,44.06,102.00,0.00,
"CA00101QFEG","1962-12-29",46.94,42.98,188.00,0.00,
"CA00101QFEG","1962-12-30",53.06,46.04,46.00,0.00,
"CA00101QFEG","1962-12-31",50.00,44.06,160.00,0.00,
"CA00101QFEG","1963-01-01",53.06,44.06,290.00,0.00,
"CA00101QFEG","1963-01-02",50.00,46.04,117.00,0.00,
"CA00101QFEG","1963-01-03",51.08,44.96,0.00,0.00,
"CA00101QFEG","1963-01-04",46.04,37.94,0.00,0.00,
"CA00101QFEG","1963-01-05",46.04,33.98,0.00,0.00,
"CA00101QFEG","1963-01-06",42.98,39.92,0.00,0.00,
"CA00101QFEG","1963-01-07",46.94,37.94,0.00,0.00,
"CA00101QFEG","1963-01-08",48.02,39.92,0.00,0.00,
"CA00101QFEG","1963-01-09",39.02,33.08,0.00,0.00,
"CA00101QFEG","1963-01-10",26.06,19.94,0.00,0.00,
"CA00101QFEG","1963-01-11",28.04,15.08,0.00,0.00,
"CA00101QFEG","1963-01-12",33.08,17.06,8.00,8.00,
"CA00101QFEG","1963-01-13",35.96,30.02,20.00,0.00,
"CA00101QFEG","1963-01-14",42.08,33.08,0.00,0.00,
"CA00101QFEG","1963-01-15",46.04,35.96,0.00,0.00,
"CA00101QFEG","1963-01-16",42.98,37.94,5.00,0.00,
"CA00101QFEG","1963-01-17",42.98,37.04,0.00,0.00,
"CA00101QFEG","1963-01-18",42.98,37.04,0.00,0.00,
"CA00101QFEG","1963-01-19",37.04,21.92,0.00,0.00,
"CA00101QFEG","1963-01-20",42.98,28.94,0.00,0.00,
"CA00101QFEG","1963-01-21",41.00,26.96,0.00,0.00,
"CA00101QFEG","1963-01-22",44.06,33.98,0.00,0.00,
"CA00101QFEG","1963-01-23",42.08,30.02,0.00,0.00,
"CA00101QFEG","1963-01-24",42.08,33.08,3.00,0.00,
"CA00101QFEG","1963-01-25",42.98,37.04,0.00,0.00,
"CA00101QFEG","1963-01-26",39.92,24.08,0.00,0.00,
"CA00101QFEG","1963-01-27",39.02,24.08,0.00,0.00,
"CA00101QFEG","1963-01-28",33.98,30.92,0.00,0.00,
"CA00101QFEG","1963-01-29",33.08,24.98,0.00,0.00,
"CA00101QFEG","1963-01-30",35.96,24.08,0.00,0.00,
"CA00101QFEG","1963-01-31",37.94,30.02,28.00,0.00,
"CA00101QFEG","1963-02-01",42.08,32.00,0.00,0.00,
"CA00101QFEG","1963-02-02",57.02,32.00,191.00,0.00,
"CA00101QFEG","1963-02-03",59.00,37.04,61.00,0.00,
"CA00101QFEG","1963-02-04",55.04,46.94,163.00,0.00,
"CA00101QFEG","1963-02-05",55.94,42.98,28.00,0.00,
"CA00101QFEG","1963-02-06",60.08,46.94,46.00,0.00,
"CA00101QFEG","1963-02-07",55.04,44.96,0.00,0.00,
"CA00101QFEG","1963-02-08",62.96,50.00,0.00,0.00,